Current Weather Conditions: station KGHG

sailwx.info

See reports from other nearby stations

no recent reports received from weather station ID KGHG

Tides Pressure Air temp Water temp Dewpoint Dewpoint depression Visibility Wind speed Wind direction Waves Ship positions
date/time (UTC)wind fromknots sea level pressurealtimeterstation pressurevisibilityair tempwater tempwave heightnotes
2017-Mar-28 14:35 060 5 8.7 5.0
2017-Mar-28 14:15 050 2 8.7 4.0
2017-Mar-28 13:55 050 4 8.7 4.0
2017-Mar-28 13:35 8.7 4.0
2017-Mar-28 13:15 060 4 8.7 4.0
2017-Mar-28 12:55 8.7 4.0
2017-Mar-28 12:35 040 5 8.7 4.0
2017-Mar-28 12:15 8.7 4.0
2017-Mar-28 11:55 040 5 8.7 3.0
2017-Mar-28 11:35 8.7 3.0
2017-Mar-28 11:15 8.7 3.0
2017-Mar-28 10:55 8.7 3.0
2017-Mar-28 10:35 8.7 3.0
2017-Mar-28 10:15 8.7 3.0
2017-Mar-28 09:55 8.7 3.0
2017-Mar-28 09:35 8.7 3.0
2017-Mar-28 09:15 8.7 3.0
2017-Mar-28 08:55 8.7 3.0
2017-Mar-28 08:35 8.7 3.0
2017-Mar-28 08:15 8.7 3.0
2017-Mar-28 07:55 7.8 3.0
2017-Mar-28 07:35 6.9 3.0
2017-Mar-28 07:15 5.2 3.0 Mist.
2017-Mar-28 06:55 8.7 3.0
2017-Mar-28 06:35 7.8 3.0
2017-Mar-28 06:15 6.1 3.0
2017-Mar-28 05:55 2.6 3.0 Mist.
2017-Mar-28 05:35 3.5 3.0 Mist.
2017-Mar-28 05:15 6.9 3.0
2017-Mar-28 04:55 8.7 3.0
2017-Mar-28 04:35 6.9 3.0
2017-Mar-28 04:15 2.6 3.0 Mist.
2017-Mar-28 03:55 2.6 3.0 Mist.
2017-Mar-28 03:35 2.6 3.0 Mist.
2017-Mar-28 03:15 2.6 3.0 Mist.
2017-Mar-28 02:55 340 6 8.7 4.0
2017-Mar-28 02:35 7.8 4.0
2017-Mar-28 02:15 2.6 4.0 Mist.
2017-Mar-28 01:55 8.7 4.0
2017-Mar-28 01:35 5.2 4.0 Mist.
2017-Mar-28 01:15 340 6 2.6 4.0 Mist.
2017-Mar-28 00:55 2.2 5.0 Mist.
2017-Mar-28 00:35 1.1 5.0 Mist.
2017-Mar-28 00:15 0.9 5.0 Mist.
2017-Mar-27 23:55 3.5 6.0 Mist.
2017-Mar-27 23:35 3.5 6.0 Mist.
2017-Mar-27 23:15 2.6 7.0 Light rain.
2017-Mar-27 22:55 1.5 7.0
2017-Mar-27 22:35 2.2 7.0 Mist.
2017-Mar-27 22:15 1.7 7.0 Mist.
2017-Mar-27 21:55 2.6 7.0 Mist.
2017-Mar-27 21:35 2.6 7.0 Mist.
2017-Mar-27 21:15 2.6 7.0 Mist.
2017-Mar-27 20:55 2.6 7.0 Mist.
2017-Mar-27 20:35 360 5 6.1 7.0
2017-Mar-27 20:15 6.1 8.0
2017-Mar-27 19:55 2.2 7.0 Mist.
2017-Mar-27 19:35 2.6 8.0 Light rain.
2017-Mar-27 19:15 2.610.0 Light rain.
2017-Mar-27 18:55 240 2 1.710.0 Light rain.
2017-Mar-27 18:35 2.6 9.0 Light rain.
2017-Mar-27 18:15 1.7 9.0 Light rain.
2017-Mar-27 17:55 170 6 gusting 12 1.1 8.0 Light rain.
2017-Mar-27 17:35 150 6 gusting 11 0.7 8.0 Light rain.
2017-Mar-27 17:15 160 5 0.7 7.0 Light rain.
2017-Mar-27 16:55 150 4 1.1 7.0 Light rain.
2017-Mar-27 16:35 150 5 1.1 6.0 Light rain.
2017-Mar-27 16:15 1.1 6.0
2017-Mar-27 15:55 150 8 1.7 6.0 Mist.
2017-Mar-27 15:35 150 6 1.5 6.0 Mist.
2017-Mar-27 15:15 150 8 gusting 17 2.2 6.0 Mist.
2017-Mar-27 14:55 140 9 gusting 15 7.8 6.0
2017-Mar-27 14:35 150 11 gusting 17 8.7 6.0
2017-Mar-27 14:15 140 9 gusting 14 8.7 6.0
2017-Mar-27 13:55 140 11 8.7 6.0
2017-Mar-27 13:35 140 6 6.1 5.0
2017-Mar-27 13:15 130 6 7.8 5.0
2017-Mar-27 12:55 130 6 7.8 5.0
2017-Mar-27 12:35 130 6 6.9 4.0
2017-Mar-27 12:15 120 6 2.6 4.0 Mist.
2017-Mar-27 11:55 120 6 gusting 11 3.5 4.0 Mist.
2017-Mar-27 11:35 110 7 2.6 4.0 Mist.
2017-Mar-27 11:15 2.6 4.0 Mist.
2017-Mar-27 10:55 120 6 gusting 12 2.2 4.0 Mist.
2017-Mar-27 10:35 120 8 gusting 13 1.7 4.0 Mist.
2017-Mar-27 10:15 110 6 1.5 4.0 Mist.
2017-Mar-27 09:55 110 5 1.5 4.0 Mist.
2017-Mar-27 09:35 090 2 1.7 4.0 Mist.
2017-Mar-27 09:15 1.7 4.0 Mist.
2017-Mar-27 08:55 1.7 3.0 Mist.
2017-Mar-27 08:35 120 7 1.5 3.0 Mist.
2017-Mar-27 08:15 120 4 2.2 3.0 Mist.
2017-Mar-27 07:55 130 6 7.8 4.0
2017-Mar-27 07:35 130 6 8.7 4.0
2017-Mar-27 07:15 130 6 8.7 4.0
2017-Mar-27 06:55 8.7 4.0
2017-Mar-27 06:35 120 6 8.7 4.0
2017-Mar-27 06:15 8.7 4.0
2017-Mar-27 05:55 120 6 8.7 4.0
2017-Mar-27 05:35 120 5 8.7 4.0
2017-Mar-27 05:15 120 4 8.7 4.0
2017-Mar-27 04:55 130 5 8.7 4.0
2017-Mar-27 04:35 130 5 8.7 4.0
2017-Mar-27 04:15 120 5 8.7 4.0
2017-Mar-27 03:55 130 5 8.7 4.0
2017-Mar-27 03:35 130 6 8.7 4.0
2017-Mar-27 03:15 120 5 gusting 13 8.7 3.0
2017-Mar-27 02:55 120 6 8.7 3.0
2017-Mar-27 02:35 130 6 8.7 3.0
2017-Mar-27 02:15 130 7 8.7 3.0
2017-Mar-27 01:55 120 6 gusting 12 8.7 4.0
2017-Mar-27 01:35 110 7 8.7 4.0
2017-Mar-27 01:15 120 6 8.7 4.0
2017-Mar-27 00:55 120 6 8.7 4.0
2017-Mar-27 00:35 120 6 8.7 4.0
2017-Mar-27 00:15 8.7 4.0
2017-Mar-26 23:55 110 6 8.7 4.0
2017-Mar-26 23:35 110 6 gusting 12 8.7 4.0
2017-Mar-26 23:15 110 6 8.7 4.0
2017-Mar-26 22:55 120 6 8.7 4.0
2017-Mar-26 22:35 110 6 8.7 4.0
2017-Mar-26 22:15 8.7 4.0
2017-Mar-26 21:55 120 8 8.7 4.0
2017-Mar-26 21:35 130 7 8.7 4.0
2017-Mar-26 21:15 130 6 gusting 12 8.7 4.0
2017-Mar-26 20:55 130 6 8.7 4.0
2017-Mar-26 20:35 120 8 8.7 4.0
2017-Mar-26 20:15 120 6 8.7 4.0 Thunderstorm.
2017-Mar-26 19:55 080 7 8.7 4.0
2017-Mar-26 19:35 090 7 8.7 4.0
2017-Mar-26 19:15 080 7 8.7 4.0
2017-Mar-26 18:55 080 8 8.7 4.0
2017-Mar-26 18:35 070 8 8.7 4.0
2017-Mar-26 18:15 090 9 8.7 4.0
2017-Mar-26 17:55 080 6 gusting 13 8.7 4.0
2017-Mar-26 17:35 070 12 8.7 5.0
2017-Mar-26 17:15 070 8 gusting 14 8.7 5.0
2017-Mar-26 16:55 080 11 gusting 15 8.7 5.0
2017-Mar-26 16:35 080 11 gusting 17 8.7 5.0
2017-Mar-26 16:15 070 14 8.7 5.0
2017-Mar-26 15:55 070 13 8.7 5.0
2017-Mar-26 15:35 070 13 8.7 5.0
2017-Mar-26 15:15 070 12 8.7 5.0